Regional Weather Roundup
Issued by NWS Cleveland, OH

Home | Current Version | Previous Version | Graphics & Text | Print | Product List | Glossary On
Versions: 1 2 3 4 5 6 7 8 9 10 11 12 13 14 15 16 17 18 19 20 21 22 23 24 25 26 27 28 29 30 31 32 33 34 35 36 37 38 39 40 41 42 43 44 45 46 47 48 49 50
000
ASUS41 KCLE 280710
RWRCLE
OHIO REGIONAL WEATHER ROUNDUP
NATIONAL WEATHER SERVICE WILMINGTON, OH
300 AM EDT FRI JUL 28 2017

NOTE: "FAIR" INDICATES FEW OR NO CLOUDS BELOW 12,000 FEET WITH NO
SIGNIFICANT WEATHER AND/OR OBSTRUCTIONS TO VISIBILITY.

OHZ001>008-015>018-024>027-034-035-043-044-280800-
   NORTHWEST OHIO

CITY           SKY/WX    TMP DP  RH WIND       PRES   REMARKS
DEFIANCE       FAIR      68  61  78 NE6       29.91S
FINDLAY        MOCLDY    71  63  75 NE9       29.89S
TOLEDO EXPRESS FAIR      67  60  78 NE7       29.91S
TOLEDO EXEC    FAIR      69  64  84 NE7       29.92S
LIMA           MOCLDY    68  67  96 NE6       29.89F
$$

OHZ009>014-019>023-028>033-038-089-280800-
   NORTHEAST OHIO

CITY           SKY/WX    TMP DP  RH WIND       PRES   REMARKS
CLE-HOPKINS    MOCLDY    72  66  81 N6        29.90S
CLE-LAKEFRONT  FAIR      72  66  81 NE7       29.87F
CUY CO. ARPT   NOT AVBL
LORAIN-ELYRIA  FAIR      66  60  81 N6        29.89F
ASHTABULA      FOG       62  62 100 CALM      29.89F VSB 1/2
AKRON-CANTON   MOCLDY    69  65  86 NE7       29.88F FOG
WOOSTER        FAIR      66  62  87 N5        29.89S
MANSFIELD      MOCLDY    66  66 100 N7        29.90S
YOUNGSTOWN     MOCLDY    67  63  87 NE5       29.89S
$$

OHZ042-051>053-060>062-070>072-077>081-280800-
  SOUTHWEST OHIO

CITY           SKY/WX    TMP DP  RH WIND       PRES   REMARKS
CINC-COVINGTON CLOUDY    73  73 100 CALM      29.85F
CINC-LUNKEN    CLOUDY    73  73 100 CALM      29.85F
HAMILTON       CLOUDY    74  74 100 CALM      29.86S
DAYTON         CLOUDY    70  69  97 NE6       29.88F
WRIGHT-PAT AFB MOCLDY    70  70 100 CALM      29.86F
DAYTON GENERAL CLOUDY    72  70  93 NE5       29.86F
WILMINGTON     CLOUDY    70  70 100 N5        29.85F FOG
$$

OHZ036-037-039>041-045>050-054>059-063>069-073>076-082>088-280800-
  CENTRAL AND SOUTHEAST OHIO

CITY           SKY/WX    TMP DP  RH WIND       PRES   REMARKS
COLUMBUS       CLOUDY    71  70  96 N5        29.86S
OSU AIRPORT    MOCLDY    69  69 100 E3        29.86F
BOLTON FIELD   CLOUDY    69  69 100 N5        29.87S FOG
RICKENBACK AFB CLOUDY    69  70 100 N7        29.85S
NEWARK         CLOUDY    71  69  93 N5        29.86S
MARION         FOG       67  66  97 N5        29.89S VSB 1/4
LANCASTER      CLOUDY    70  70 100 N6        29.86R FOG
ZANESVILLE     CLOUDY    71  69  93 NE5       29.85F FOG
NEW PHILLY     CLOUDY    68  68 100 CALM      29.88S FOG
$$




USA.gov is the U.S. government's official web portal to all federal, state and local government web resources and services.